DW9145 Weather Reports


time (UTC)temp
C
wind
direction
speed
KPH
gust
KPH
rain 1hr
cm
rain 24hr
cm
rain mn
cm
humidity
%
barometer
mb
20260503011505 13 227 0.0 1.6 0.00 0.00 0.00 45 1009.6
20260503011006 13 228 0.0 4.8 0.00 0.00 0.00 43 1009.6
20260503005005 15 251 0.0 1.6 0.00 0.00 0.00 40 1009.8
20260503004506 15 252 1.6 4.8 0.00 0.00 0.00 40 1009.8
20260503004005 15 259 1.6 4.8 0.00 0.00 0.00 41 1009.8
20260503003505 15 226 3.2 4.8 0.00 0.00 0.00 39 1009.9
20260503003005 15 241 1.6 4.8 0.00 0.00 0.00 40 1009.9
20260503002505 15 259 3.2 8.0 0.00 0.00 0.00 38 1010.2
20260503002005 15 271 1.6 4.8 0.00 0.00 0.00 39 1010.2
20260503001505 15 257 0.0 4.8 0.00 0.00 0.00 39 1010.1
20260503001005 15 261 1.6 4.8 0.00 0.00 0.00 38 1010.2
20260503000505 15 256 1.6 4.8 0.00 0.00 0.00 39 1010.3
20260503000005 15 261 3.2 8.0 0.00 0.00 0.00 39 1010.3
20260502235505 15 230 4.8 11.3 0.00 0.00 0.00 37 1010.4
20260502235006 15 244 1.6 8.0 0.00 0.00 0.00 38 1010.5
20260502234505 15 231 3.2 4.8 0.00 0.00 0.00 36 1010.5
20260502234005 15 293 6.4 11.3 0.00 0.00 0.00 36 1010.5
20260502233505 15 264 6.4 12.9 0.00 0.00 0.00 36 1010.5
20260502233005 15 271 3.2 8.0 0.00 0.00 0.00 38 1010.5
20260502232504 15 264 3.2 8.0 0.00 0.00 0.00 37 1010.7
20260502231505 15 241 4.8 12.9 0.00 0.00 0.00 37 1010.8
20260502231005 15 235 4.8 11.3 0.00 0.00 0.00 36 1010.9
20260502230505 15 242 4.8 11.3 0.00 0.00 0.00 36 1010.9
20260502230005 15 243 4.8 11.3 0.00 0.00 0.00 37 1011.0
20260502225005 16 234 4.8 8.0 0.00 0.00 0.00 35 1011.0
20260502224505 16 267 3.2 8.0 0.00 0.00 0.00 36 1011.0
20260502224005 16 263 3.2 14.5 0.00 0.00 0.00 35 1011.2
20260502223005 16 230 4.8 16.1 0.00 0.00 0.00 34 1011.2
20260502222505 17 237 9.7 16.1 0.00 0.00 0.00 33 1011.2
20260502221505 16 226 4.8 12.9 0.00 0.00 0.00 35 1011.2
20260502221005 16 256 4.8 14.5 0.00 0.00 0.00 34 1011.3
20260502220505 16 225 4.8 11.3 0.00 0.00 0.00 35 1011.4
20260502220005 16 277 6.4 14.5 0.00 0.00 0.00 34 1011.3
20260502215506 16 208 3.2 11.3 0.00 0.00 0.00 35 1011.4
20260502215005 16 236 3.2 12.9 0.00 0.00 0.00 33 1011.4
20260502214505 16 225 8.0 20.9 0.00 0.00 0.00 33 1011.6
20260502214005 16 242 4.8 19.3 0.00 0.00 0.00 32 1011.6
20260502213506 16 247 3.2 11.3 0.00 0.00 0.00 35 1011.7
20260502213005 16 285 4.8 11.3 0.00 0.00 0.00 33 1011.7
20260502212506 16 265 4.8 9.7 0.00 0.00 0.00 34 1011.8
20260502212005 16 249 3.2 12.9 0.00 0.00 0.00 34 1011.8
20260502211505 16 19 8.0 27.4 0.00 0.00 0.00 32 1011.8
20260502211005 16 195 3.2 11.3 0.00 0.00 0.00 33 1011.8
20260502210505 16 258 4.8 14.5 0.00 0.00 0.00 33 1011.9
20260502210005 16 242 4.8 12.9 0.00 0.00 0.00 31 1012.0
20260502205504 16 238 8.0 19.3 0.00 0.00 0.00 33 1012.1
20260502204505 15 222 1.6 12.9 0.00 0.00 0.00 30 1012.4
20260502204005 16 248 9.7 22.5 0.00 0.00 0.00 31 1012.4
20260502203505 16 245 3.2 12.9 0.00 0.00 0.00 29 1012.4
20260502203005 16 256 4.8 12.9 0.00 0.00 0.00 30 1012.5
20260502202504 16 228 6.4 19.3 0.00 0.00 0.00 31 1012.6
20260502202005 16 334 3.2 12.9 0.00 0.00 0.00 32 1012.6
20260502201006 16 292 3.2 11.3 0.00 0.00 0.00 30 1012.8
20260502200505 16 264 6.4 12.9 0.00 0.00 0.00 30 1012.7
20260502200005 16 229 1.6 11.3 0.00 0.00 0.00 30 1012.8
20260502195506 16 4 1.6 11.3 0.00 0.00 0.00 29 1013.0
20260502195005 16 250 4.8 19.3 0.00 0.00 0.00 30 1013.0
20260502194504 16 234 4.8 14.5 0.00 0.00 0.00 31 1013.2
20260502193005 16 207 3.2 11.3 0.00 0.00 0.00 29 1013.5
20260502192505 15 350 3.2 11.3 0.00 0.00 0.00 29 1013.5
20260502192005 15 331 1.6 9.7 0.00 0.00 0.00 30 1013.8
20260502191505 15 252 3.2 9.7 0.00 0.00 0.00 28 1013.9
20260502191006 15 239 3.2 12.9 0.00 0.00 0.00 28 1014.0
20260502190505 15 247 8.0 19.3 0.00 0.00 0.00 28 1014.0
20260502190005 15 3 3.2 9.7 0.00 0.00 0.00 30 1014.0
20260502185505 15 246 4.8 9.7 0.00 0.00 0.00 30 1014.1
20260502183505 15 351 8.0 12.9 0.00 0.00 0.00 32 1014.3
20260502183005 15 269 3.2 8.0 0.00 0.00 0.00 29 1014.5
20260502182006 15 270 6.4 16.1 0.00 0.00 0.00 31 1014.4
20260502181505 15 208 3.2 14.5 0.00 0.00 0.00 30 1014.4
20260502180505 15 298 1.6 16.1 0.00 0.00 0.00 31 1014.7
20260502164005 13 233 4.8 16.1 0.00 0.00 0.00 36 1016.0
20260502163505 13 235 6.4 11.3 0.00 0.00 0.00 33 1016.1
20260502163005 13 351 6.4 14.5 0.00 0.00 0.00 34 1016.1
20260502162005 13 310 3.2 14.5 0.00 0.00 0.00 34 1016.2
20260502161504 13 331 8.0 19.3 0.00 0.00 0.00 33 1016.3
20260502161005 13 332 4.8 19.3 0.00 0.00 0.00 36 1016.3
20260502160504 12 342 4.8 19.3 0.00 0.00 0.00 36 1016.3
20260502152005 11 303 3.2 11.3 0.00 0.00 0.00 40 1016.8
20260502151005 10 255 3.2 8.0 0.00 0.00 0.00 42 1017.0
20260502150505 10 263 3.2 11.3 0.00 0.00 0.00 43 1017.0
20260502123505 -1 84 0.0 0.0 0.00 0.00 0.00 86 1017.6
20260502123005 -1 84 0.0 0.0 0.00 0.00 0.00 86 1017.6
20260502122005 -2 84 0.0 0.0 0.00 0.00 0.00 86 1017.6
20260502121505 -2 84 0.0 0.0 0.00 0.00 0.00 86 1017.7
20260502115505 -2 84 0.0 0.0 0.00 0.00 0.00 86 1017.6
20260502115005 -2 84 0.0 0.0 0.00 0.00 0.00 86 1017.5
20260502114505 -2 84 0.0 0.0 0.00 0.00 0.00 86 1017.5
20260502114005 -2 84 0.0 0.0 0.00 0.00 0.00 86 1017.6
20260502113505 -2 84 0.0 0.0 0.00 0.00 0.00 86 1017.5
20260502113005 -2 84 0.0 0.0 0.00 0.00 0.00 86 1017.5
20260502112504 -2 84 0.0 0.0 0.00 0.00 0.00 85 1017.5
20260502111504 -2 84 0.0 0.0 0.00 0.00 0.00 86 1017.5
20260502111005 -2 84 0.0 0.0 0.00 0.00 0.00 85 1017.5
20260502110505 -2 84 0.0 0.0 0.00 0.00 0.00 85 1017.5
20260502105504 -2 84 0.0 0.0 0.00 0.00 0.00 85 1017.5
20260502105005 -2 84 0.0 0.0 0.00 0.00 0.00 85 1017.6
20260502104505 -2 84 0.0 0.0 0.00 0.00 0.00 85 1017.6
20260502103505 -2 84 0.0 0.0 0.00 0.00 0.00 85 1017.5
20260502103004 -2 84 0.0 0.0 0.00 0.00 0.00 85 1017.5
20260502102505 -2 84 0.0 0.0 0.00 0.00 0.00 85 1017.6
20260502102005 -2 84 0.0 0.0 0.00 0.00 0.00 85 1017.6
20260502101505 -2 84 0.0 0.0 0.00 0.00 0.00 85 1017.6
20260502101005 -2 84 0.0 0.0 0.00 0.00 0.00 84 1017.6
20260502100506 -2 84 0.0 0.0 0.00 0.00 0.00 84 1017.6
20260502091504 -2 84 0.0 0.0 0.00 0.00 0.00 84 1017.8
20260502091005 -2 84 0.0 0.0 0.00 0.00 0.00 83 1017.8
20260502090504 -2 84 0.0 0.0 0.00 0.00 0.00 83 1017.8
20260502071505 -1 84 0.0 0.0 0.00 0.00 0.00 82 1018.2
20260502071005 -1 84 0.0 0.0 0.00 0.00 0.00 83 1018.3
20260502070504 -1 84 0.0 0.0 0.00 0.00 0.00 82 1018.3
20260502070004 -1 84 0.0 0.0 0.00 0.00 0.00 82 1018.3
20260502065505 -1 84 0.0 0.0 0.00 0.00 0.00 82 1018.3
20260502065005 -1 84 0.0 0.0 0.00 0.00 0.00 82 1018.4
20260502064505 -1 84 0.0 0.0 0.00 0.00 0.00 82 1018.4
20260502064005 -1 84 0.0 0.0 0.00 0.00 0.00 82 1018.4
20260502063505 -1 84 0.0 0.0 0.00 0.00 0.00 82 1018.5
20260502063004 -1 84 0.0 0.0 0.00 0.00 0.00 81 1018.5
20260502062004 -1 84 0.0 0.0 0.00 0.00 0.00 80 1018.6
20260502061505 -1 84 0.0 0.0 0.00 0.00 0.00 80 1018.6
20260502061004 -1 84 0.0 0.0 0.00 0.00 0.00 80 1018.5
20260502060504 -1 84 0.0 0.0 0.00 0.00 0.00 80 1018.5
20260502060004 -1 84 0.0 0.0 0.00 0.00 0.00 80 1018.5
20260502055504 -1 84 0.0 0.0 0.00 0.00 0.00 80 1018.6
20260502055005 -1 84 0.0 0.0 0.00 0.00 0.00 80 1018.5
20260502054504 -1 84 0.0 0.0 0.00 0.00 0.00 80 1018.5
20260502054004 0 84 0.0 0.0 0.00 0.00 0.00 80 1018.5
20260502053005 0 84 0.0 0.0 0.00 0.00 0.00 80 1018.6
20260502052504 0 84 0.0 0.0 0.00 0.00 0.00 80 1018.6
20260502051505 0 84 0.0 0.0 0.00 0.00 0.00 80 1018.5
20260502051004 0 84 0.0 0.0 0.00 0.00 0.00 79 1018.5
20260502050504 0 84 0.0 0.0 0.00 0.00 0.00 79 1018.6
20260502050004 0 84 0.0 0.0 0.00 0.00 0.00 79 1018.6
20260502045505 0 84 0.0 0.0 0.00 0.00 0.00 79 1018.6
20260502044005 0 84 0.0 0.0 0.00 0.00 0.00 77 1018.6
20260502043504 0 84 0.0 0.0 0.00 0.00 0.00 77 1018.6
20260502043005 0 84 0.0 0.0 0.00 0.00 0.00 77 1018.6
20260502042504 0 84 0.0 0.0 0.00 0.00 0.00 76 1018.6
20260502042004 0 84 0.0 0.0 0.00 0.00 0.00 76 1018.6
20260502041504 0 84 0.0 0.0 0.00 0.00 0.00 75 1018.6
20260502041004 1 84 0.0 0.0 0.00 0.00 0.00 74 1018.6
20260502040505 1 84 0.0 0.0 0.00 0.00 0.00 73 1018.5
20260502040005 1 84 0.0 0.0 0.00 0.00 0.00 73 1018.6
20260502035505 1 84 0.0 0.0 0.00 0.00 0.00 72 1018.6
20260502035005 1 84 0.0 0.0 0.00 0.00 0.00 72 1018.6
20260502034504 1 84 0.0 0.0 0.00 0.00 0.00 71 1018.6
20260502034005 2 84 0.0 0.0 0.00 0.00 0.00 70 1018.6
20260502033504 2 84 0.0 0.0 0.00 0.00 0.00 70 1018.6
20260502033004 2 84 0.0 0.0 0.00 0.00 0.00 68 1018.7
20260502032504 2 84 0.0 0.0 0.00 0.00 0.00 68 1018.6
20260502032005 2 84 0.0 0.0 0.00 0.00 0.00 67 1018.6
20260502031005 3 84 0.0 0.0 0.00 0.00 0.00 64 1018.5
20260502025005 3 84 0.0 0.0 0.00 0.00 0.00 60 1018.4
20260502024505 4 84 0.0 0.0 0.00 0.00 0.00 60 1018.5
20260502024005 4 84 0.0 0.0 0.00 0.00 0.00 59 1018.4
20260502023505 4 84 0.0 0.0 0.00 0.00 0.00 59 1018.3
20260502022004 5 84 0.0 0.0 0.00 0.00 0.00 57 1018.3
20260502021505 5 84 0.0 0.0 0.00 0.00 0.00 56 1018.3
20260502021004 5 84 0.0 0.0 0.00 0.00 0.00 55 1018.3
20260502020005 6 84 0.0 0.0 0.00 0.00 0.00 54 1018.2
20260502015504 6 84 0.0 0.0 0.00 0.00 0.00 52 1018.2
20260502015005 6 84 0.0 0.0 0.00 0.00 0.00 53 1018.2
20260502014504 6 84 0.0 0.0 0.00 0.00 0.00 51 1018.0
20260502014005 7 84 0.0 0.0 0.00 0.00 0.00 50 1018.0
20260502013505 7 84 0.0 0.0 0.00 0.00 0.00 50 1018.0
20260502013004 7 84 0.0 0.0 0.00 0.00 0.00 49 1017.9